This is the latest recevied weather packets stored in our database for station/object N9OJR. If no packets are shown the sender has not sent any weather packets the latest 1 day(s).
| Time | Temp. | Humidity | Pressure | Rain* | Wind** | Luminosity | Snow |
|---|---|---|---|---|---|---|---|
| 1778038373 | 9.44° C | 99% | 1005 hPa | 3.05 mm | 0 m/s | 0 W/m² | - |
| 1778038070 | 9.44° C | 99% | 1004.8 hPa | 1.78 mm | 0 m/s | 0 W/m² | - |
| 1778037767 | 9.44° C | 99% | 1005 hPa | 1.27 mm | 0 m/s | 0 W/m² | - |
| 1778037464 | 9.44° C | 99% | 1004.8 hPa | 1.27 mm | 0.45 m/s, 359° | 0 W/m² | - |
| 1778037161 | 9.44° C | 99% | 1004.9 hPa | 1.78 mm | 0.89 m/s, 295° | 0 W/m² | - |
| 1778036859 | 9.44° C | 99% | 1005.1 hPa | 1.78 mm | 0.45 m/s, 253° | 0 W/m² | - |
| 1778036557 | 10° C | 99% | 1005 hPa | 1.27 mm | 0.45 m/s, 311° | 0 W/m² | - |
| 1778036253 | 10° C | 99% | 1005 hPa | 1.27 mm | 0 m/s | 0 W/m² | - |
| 1778035949 | 10° C | 99% | 1004.9 hPa | 1.78 mm | 0 m/s | 0 W/m² | - |
| 1778035641 | 10° C | 99% | 1004.9 hPa | 1.78 mm | 0.45 m/s, 308° | 0 W/m² | - |
| 1778035338 | 10° C | 99% | 1005 hPa | 1.78 mm | 0 m/s | 0 W/m² | - |
| 1778035034 | 10° C | 99% | 1005 hPa | 1.78 mm | 0.45 m/s, 305° | 0 W/m² | - |
| 1778034731 | 10° C | 99% | 1005.3 hPa | 1.27 mm | 0.45 m/s, 342° | 0 W/m² | - |
| 1778034428 | 10° C | 99% | 1005.2 hPa | 1.27 mm | 0 m/s | 0 W/m² | - |
| 1778034126 | 10° C | 99% | 1005.2 hPa | 0 mm | 0 m/s | 0 W/m² | - |
| 1778033824 | 10° C | 99% | 1005.5 hPa | 3.05 mm | 0 m/s | 0 W/m² | - |
| 1778033520 | 10° C | 99% | 1005.2 hPa | 6.1 mm | 0.45 m/s, 274° | 0 W/m² | - |
| 1778033217 | 10° C | 99% | 1005 hPa | 10.67 mm | 0.45 m/s, 100° | 0 W/m² | - |
| 1778032915 | 10.56° C | 99% | 1004.9 hPa | 21.59 mm | 1.79 m/s, 309° | 0 W/m² | - |
| 1778032612 | 10.56° C | 99% | 1005 hPa | 24.64 mm | 0.89 m/s, 334° | 0 W/m² | - |
| 1778032309 | 11.11° C | 99% | 1004.6 hPa | 13.72 mm | 0.45 m/s, 25° | 0 W/m² | - |
| 1778032006 | 11.11° C | 99% | 1004.3 hPa | 7.87 mm | 0 m/s | 0 W/m² | - |
| 1778031702 | 11.67° C | 99% | 1004.2 hPa | 8.89 mm | 0 m/s | 0 W/m² | - |
| 1778031400 | 12.22° C | 99% | 1004.3 hPa | 9.65 mm | 0.45 m/s, 308° | 0 W/m² | - |
| 1778031097 | 12.78° C | 99% | 1003.9 hPa | 4.32 mm | 0.45 m/s, 307° | 0 W/m² | - |
* Rain latest hour (hover to see other rain measurements)
** Current wind speed in m/s (hover to see current wind gust speed)